Location: Malvern Link
(52.1333°N, 2.3000°W)
Time: 10:40:53
(UTC+00:00)

MOZHAYETS 4 - Pass Details

Date: 07 July 2022
Orbit: 660 x 679 km, 98.2° (Epoch: 09 August)

Event Time Altitude Azimuth Distance (km) Brightness Sun altitude
Exits shadow 02:39:21 - 177° (S) 2,499 10.2 -8.8°
Reaches altitude 10° 02:40:21 10° 179° (S) 2,103 9.8 -8.7°
Maximum altitude 02:44:52 57° 259° (WSW) 792 7.9 -8.3°
Drops below altitude 10° 02:49:25 10° 338° (NNW) 2,108 10.8 -7.9°
Sets 02:51:41 0° 343° (NNW) 3,023 11.7 -7.7°
